CZ-6A DEB, 56629

Orbit data source: Space-Track

CZ-6A DEB, 56629 is space debris in SSO originally from a launch on Fri, 11 Nov 2022 UTC launched from the Taiyaun Space Center, China (TSC). Debris objects in space refer to the collection of defunct objects orbiting the Earth. Examples of debris include non-operational satellites, rocket bodies, and fragments generated from explosions, collisions, or faulty payload assembly.

Loading next visibility...
Identifier
56629, 2022-151AFD
Orbit
SSO
Country
Flag of CNCN / PRC
Related business
Manufacturer
SAST
Mission
Spacecraft
Bus & Motor
Unknown
Mass
Unknown
Launch date (UTC)
2022-11-11 (4 years ago)
Launch vehicle
Unknown
Launch site
Taiyaun Space Center, China (TSC)
Object type
Payload
Rocket body
Debris
Shape & HBR
Unknown shape, 0.1 m
Radar Cross Section
Small (<0.1 m²)

Expand to show TLE details & history
Last TLE update: 12 hours ago

TLE from 12 hours ago
0 CZ-6A DEB
1 56629U 22151AFD 26254.40946424  .00004909  00000-0  95428-3 0  9994
2 56629  98.6195 310.2377 0071461  64.1711 296.6837 14.61988399179253
Epoch: 2026-09-11T09:49Z
TLE epoch observation values (Epoch: 2026-09-11T09:49:37.710Z)
Latitude
-0.00003°
Longitude
172.39735°
Altitude
667.349 km
Speed
7.535 km/s
True Right ascension
20h 40m 57s
True Declination
0° 00' 00"
Sunlit
Object was in full shadow at epoch
Visualization orbit readout
Latitude
Unknown
Longitude
Unknown
Altitude
Unknown
Speed
Unknown
Apparent Right ascension
Unknown
Apparent Declination
Unknown
Sunlit
N/A
Visualization observer readout
Local Sidereal Time
14:35:13
Azimuth
Unknown
Elevation
Unknown
Doppler factor
Unknown
Orbital elements
Apogee altitude
734.325 km
Perigee altitude
633.393 km
Semi-major axis
7,061.996 km
Eccentricity
0.00715
Inclination
98.6195°
RAAN
310.2377°
Arg. of periapsis
64.1711°
True anomaly
295.9491°
Mean anomaly
296.6837°
Eccentric anomaly
296.31669°
Mean motion
3.65723 °/min
Orbital period
98.44 mins
BSTAR
0.00095428
Loading maneuver chart data...
Computing Atmospheric mass density...
Loading historical data...
Loading historical data...
Loading historical data...
Loading historical data...
Loading historical data...
Loading historical data...
Loading historical data...

Documentation

Showing up to 5 results
|